Location: *
(44.1392°N, 4.8079°E)
Time: 07:52:12
(UTC+00:00)

Cosmos 2266 Rocket - Pass Details

Date: 21 June 2021
Orbit: 935 x 1007 km, 82.9° (Epoch: 01 August)

Event Time Altitude Azimuth Distance (km) Brightness Sun altitude
Exits shadow 03:13:24 - 208° (SSW) 2,984 5.9 -7.0°
Reaches altitude 10° 03:14:17 10° 211° (SSW) 2,672 5.7 -6.9°
Maximum altitude 03:20:06 46° 284° (WNW) 1,250 4.4 -6.1°
Drops below altitude 10° 03:25:55 10° 357° (N) 2,659 6.9 -5.3°
Sets 03:28:31 0° 3° (N) 3,605 7.7 -5.0°
